Weather History for Chillicothe, MO

Change the Weather History Date:

Wednesday, January 16, 2013

  Actual Average (KIRK) Record (KIRK)
Temperature  
Mean Temperature 30 °F 26 °F  
Max Temperature 45 °F 35 °F 65 °F (2012)
Min Temperature 14 °F 17 °F -19 °F (1977)
Degree Days  
Heating Degree Days 36 39  
Month to date heating degree days 624  
Since 1 July heating degree days 2967  
Cooling Degree Days 0 0  
Month to date cooling degree days 0  
Year to date cooling degree days 0  
Moisture  
Dew Point 20 °F    
Average Humidity 69    
Maximum Humidity 88    
Minimum Humidity 45    
Precipitation  
Precipitation 0.00 in 0.05 in 0.57 in (1980)
Month to date precipitation 0.51  
Year to date precipitation 0.51  
Sea Level Pressure  
Sea Level Pressure 30.10 in    
Wind  
Wind Speed 6 mph (SW)    
Max Wind Speed 12 mph    
Max Gust Speed 17 mph    
T = Trace of Precipitation, MM = Missing Value Source: NWS Daily Summary

Daily Weather History Graph

Daily Weather History Graph

Search for Another Location

Airport:

Trip Planner

Search our weather history database for the weather conditions in past years. The results will help you decide how hot, cold, wet, or windy it might be!

Date:

Astronomy

Jan. 16, 2013 Rise Set
Actual Time 7:33 AM CST 5:15 PM CST
Civil Twilight 7:03 AM CST 5:45 PM CST
Nautical Twilight 6:30 AM CST 6:18 PM CST
Astronomical Twilight 5:58 AM CST 6:50 PM CST
Moon 10:10 AM CST (1/16) 11:06 PM CST (1/16)
Length of Visible Light 10h 41m
Length of Day
9h 42m
Waxing Crescent, 28% of the Moon is Illuminated
Jan 16
Waxing Crescent
Jan 18
First Quarter
Jan 26
Full
Feb 3
Last Quarter
Feb 10
New

Hourly Weather History & Observations

Time (CST) Temp. Windchill Dew Point Humidity Pressure Visibility Wind Dir Wind Speed Gust Speed Precip Events Conditions
12:52 AM 14.0 °F 6.5 °F 10.0 °F 84% 30.22 in - SSW 4.6 mph - N/A   Unknown
1:52 AM 16.0 °F 8.8 °F 12.0 °F 84% 30.20 in - South 4.6 mph - N/A   Unknown
2:52 AM 15.1 °F 7.7 °F 12.0 °F 88% 30.18 in - South 4.6 mph - N/A   Unknown
3:52 AM 14.0 °F 6.5 °F 10.9 °F 88% 30.17 in - South 4.6 mph - N/A   Unknown
4:52 AM 14.0 °F 6.5 °F 10.9 °F 88% 30.14 in - South 4.6 mph - N/A   Unknown
5:52 AM 15.1 °F 7.7 °F 12.0 °F 88% 30.13 in - South 4.6 mph - N/A   Unknown
6:52 AM 16.0 °F 7.4 °F 10.9 °F 81% 30.11 in - South 5.8 mph - N/A   Unknown
7:52 AM 19.9 °F 13.4 °F 12.0 °F 71% 30.11 in - SSW 4.6 mph - N/A   Unknown
8:52 AM 25.0 °F 16.3 °F 15.1 °F 66% 30.05 in - SW 8.1 mph - N/A   Unknown
9:52 AM 30.0 °F 21.7 °F 19.0 °F 64% 30.04 in - SSW 9.2 mph - N/A   Unknown
10:52 AM 35.1 °F 26.9 °F 19.9 °F 54% 30.02 in - SSW 11.5 mph 17.3 mph N/A   Unknown
11:52 AM 39.9 °F 33.4 °F 19.9 °F 45% 30.01 in - WSW 10.4 mph - N/A   Unknown
12:52 PM 41.0 °F 35.2 °F 21.0 °F 45% 29.99 in - WSW 9.2 mph - N/A   Unknown
1:52 PM 42.1 °F 37.1 °F 24.1 °F 49% 29.99 in - WSW 8.1 mph 16.1 mph N/A   Unknown
2:52 PM 44.1 °F 39.0 °F 25.0 °F 47% 30.00 in - SW 9.2 mph 16.1 mph N/A   Unknown
3:52 PM 45.0 °F 41.2 °F 27.0 °F 49% 30.02 in - WSW 6.9 mph - N/A   Unknown
4:52 PM 43.0 °F 41.3 °F 28.0 °F 56% 30.03 in - Variable 3.5 mph - N/A   Unknown
5:52 PM 36.0 °F 33.3 °F 27.0 °F 70% 30.05 in - South 3.5 mph - N/A   Unknown
6:52 PM 35.1 °F 30.1 °F 27.0 °F 72% 30.07 in - SSW 5.8 mph - N/A   Unknown
7:52 PM 30.9 °F 26.2 °F 25.0 °F 79% 30.09 in - SSW 4.6 mph - N/A   Unknown
8:52 PM 36.0 °F - 26.1 °F 67% 30.15 in - Calm Calm - N/A   Unknown
9:52 PM 35.1 °F 31.0 °F 27.0 °F 72% 30.15 in - West 4.6 mph - N/A   Unknown
10:52 PM 37.0 °F 31.6 °F 30.0 °F 76% 30.17 in - NNW 6.9 mph - N/A   Unknown
11:52 PM 37.9 °F 32.7 °F 30.9 °F 76% 30.20 in - NNW 6.9 mph - N/A   Unknown